Location: St. Louis
(38.6270°N, 90.1994°W)
Time: 08:33:10
(UTC-06:00)

Transit 2A - Pass Details

Date: 08 December 2021
Orbit: 591 x 967 km, 66.7° (Epoch: 20 January)

Event Time Altitude Azimuth Distance (km) Brightness Sun altitude
Exits shadow 05:47:42 - 343° (NNW) 3,682 9.2 -14.9°
Rises 05:47:47 0° 344° (NNW) 3,658 9.2 -14.9°
Reaches altitude 10° 05:52:21 10° 13° (NNE) 2,709 8.8 -14.1°
Maximum altitude 05:54:48 12° 36° (NE) 2,535 8.9 -13.6°
Drops below altitude 10° 05:57:12 10° 59° (ENE) 2,676 9.4 -13.2°
Sets 06:01:37 0° 88° (E) 3,563 10.9 -12.3°
